Location: Montr�al
(45.5000°N, 73.5830°W)
Time: 07:22:21
(UTC-05:00)

ISS - Visible Passes

Search period start: 26 February 2017 00:00
Search period end: 08 March 2017 00:00
Orbit: 399 x 408 km, 51.6° (Epoch: 26 February)

Date Brightness Start Highest point End Pass type
(mag) Time Alt. Az. Time Alt. Az. Time Alt. Az.
02 Mar -0.5 05:14:52 10° S 05:17:02 16° SE 05:19:12 10° E visible
04 Mar -1.9 05:05:40 14° SSW 05:08:04 34° SE 05:11:07 10° ENE visible
05 Mar -1.1 04:15:31 20° SE 04:15:38 20° SE 04:18:07 10° E visible
05 Mar -3.3 05:48:32 10° WSW 05:51:49 69° NNW 05:55:07 10° ENE visible
06 Mar -3.2 04:57:53 33° SW 04:59:12 72° SSE 05:02:30 10° ENE visible
07 Mar -1.7 04:07:29 33° ESE 04:07:29 33° ESE 04:09:46 10° ENE visible
07 Mar -2.6 05:40:08 11° W 05:43:07 41° NNW 05:46:17 10° NE visible
